Regional Weather Roundup
Issued by NWS

Home | Current Version | Previous Version | Text Only | Print | Product List | Glossary On
Versions: 1 2 3 4 5 6 7 8 9 10 11 12 13 14 15 16 17 18 19 20 21 22 23 24 25 26 27 28 29 30 31 32 33 34 35 36 37 38 39 40 41 42 43 44 45 46 47 48 49 50
000
ASUS43 KDMX 301303
RWRIA

WEATHER ROUNDUP FOR IOWA
NATIONAL WEATHER SERVICE DES MOINES IA
800 AM CDT SAT APR 30 2016

NOTE: "FAIR" INDICATES FEW OR NO CLOUDS BELOW 12,000 FEET WITH NO
SIGNIFICANT WEATHER AND/OR OBSTRUCTIONS TO VISIBILITY.

* - THESE STATIONS ARE NOT NWS STATIONS...THUS NOT UNDER NWS
QUALITY CONTROL.  THEY ALSO DO NOT REPORT WEATHER SUCH
AS PRECIPITATION OR FOG.

IAZ001>003-012>014-020>022-031>034-043>046-301400-
   NORTHWEST IOWA

CITY           SKY/WX    TMP DP  RH WIND       PRES   REMARKS
CARROLL *      LGT RAIN  43  43 100 E23G32    29.80S
CHEROKEE *     LGT RAIN  43  43 100 NE18G25   29.84F
DENISON *      HVY RAIN  43  43 100 E23G36    29.76R
LE MARS *      LGT RAIN  45  41  87 NE20G30   29.83F
ORANGE CITY *  LGT RAIN  43  39  87 E16G28    29.85F
SHELDON *      LGT RAIN  43  41  93 NE21G28   29.88S
SIOUX CITY     HVY RAIN  45  41  86 NE17G25   29.81S FOG
SPENCER        LGT RAIN  43  38  82 NE22      29.91R
STORM LAKE *   MOSUNNY   43  41  93 NE30      29.82F FOG
$$

IAZ055>058-069>071-079>083-090>094-301400-
   SOUTHWEST IOWA

CITY           SKY/WX    TMP DP  RH WIND       PRES   REMARKS
ATLANTIC *     RAIN      45  45 100 E16G28    29.75R
AUDUBON *      MIX PCPN  43  41  93 E15G23    29.79R
CLARINDA *       N/A    N/A N/A N/A MISG        N/A
COUNCIL BLFS * LGT RAIN  45  45 100 E18G31    29.71F
CRESTON *      CLOUDY    45  45 100 E22       29.76R FOG
HARLAN  *      RAIN      45  43  93 E24G30    29.77F
LAMONI         LGT RAIN  46  46 100 E13G24    29.74F FOG
RED OAK *      LGT RAIN  46  45  93 E18G29    29.69F
SHENANDOAH *   CLOUDY    48  48 100 E13G18    29.69F
$$

IAZ047>049-059>061-072>074-084-301400-
   CENTRAL IOWA

CITY           SKY/WX    TMP DP  RH WIND       PRES   REMARKS
AMES           LGT RAIN  44  44 100 E18G26    29.83F FOG
ANKENY *       LGT RAIN  45  45 100 MISG      29.82S
BOONE *        LGT RAIN  43  43 100 E24G32    29.81F
CHARITON *     LGT RAIN  46  46 100 E13G20    29.80R VSB 1
DES MOINES     LGT RAIN  46  42  86 E18G26    29.81S FOG
GRINNELL*      RAIN      43  43 100 E17G23    29.86R VSB 1
KNOXVILLE *    LGT RAIN  46  45  93 E16G25    29.80R VSB 1
MARSHALLTOWN   LGT RAIN  43  41  93 E21       29.87F FOG
NEWTON *       FOG       45  45 100 E22       29.83S VSB 1
PELLA *        RAIN      45  44  97 E16G22    29.84R
$$

IAZ004>006-015-016-023>025-035-036-301400-
   NORTH CENTRAL IOWA

CITY           SKY/WX    TMP DP  RH WIND       PRES   REMARKS
ALGONA *       CLOUDY    45  41  87 E21G29    29.91F
CLARION *      LGT RAIN  43  41  93 E25G31    29.88F
ESTHERVILLE    LGT RAIN  43  39  86 NE22      29.93R
FORT DODGE *   CLOUDY    43  37  81 E21       29.86F
MASON CITY     CLOUDY    43  39  86 E22G29    29.95F
FOREST CITY *  CLOUDY    43  37  81 E17G25    29.93F
WEBSTER CITY * LGT RAIN  43  43 100 E25       29.83F
IOWA FALLS *   RAIN      45  41  87 E18G25    29.89F
$$

IAZ007>011-017>019-026>030-037>042-050>054-066-301400-
   NORTHEAST IOWA

CITY           SKY/WX    TMP DP  RH WIND       PRES   REMARKS
CEDAR RAPIDS   CLOUDY    45  44  97 E22       29.88F FOG
CHARLES CITY * CLOUDY    43  43 100 E21G26    29.97R
CLINTON *      CLOUDY    46  43  89 E18       29.95F
DECORAH *      CLOUDY    43  41  93 E15G21    29.98F
DUBUQUE        CLOUDY    45  40  82 NE10      29.96F
MONTICELLO *   CLOUDY    45  41  87 E15G24    29.93S
OELWEIN *      MIX PCPN  43  43 100 E16G24    29.95S
WATERLOO       CLOUDY    44  40  85 E17G28    29.92F FOG
$$

IAZ064-065-067-068-078-301400-
   EAST CENTRAL IOWA

CITY           SKY/WX    TMP DP  RH WIND       PRES   REMARKS
DAVENPORT      LGT RAIN  45  43  93 E15       29.93F FOG
IOWA CITY      CLOUDY    46  43  89 E17G24    29.89F FOG
MT. PLEASANT * CLOUDY    49  49 100 E17       29.81F FOG
MUSCATINE *    CLOUDY    46  45  93 E18G26    29.88F FOG
QUAD CITIES    LGT RAIN  47  43  86 E16       29.92F FOG
$$

IAZ062-063-075>077-085>089-095>099-301400-
   SOUTHEAST IOWA

CITY           SKY/WX    TMP DP  RH WIND       PRES   REMARKS
BURLINGTON     CLOUDY    48  32  53 E17G23    29.83F FOG
FAIRFIELD *    CLOUDY    46  45  93 E18G32    29.83R FOG
FORT MADISON * CLOUDY    48  46  93 E20G26    29.81F FOG
KEOKUK *       CLOUDY    50  48  93 E17G29    29.78S
OSKALOOSA *    LGT RAIN  46  45  96 E17       29.83R
OTTUMWA        LGT RAIN  46  45  96 E18G28    29.81S FOG
WASHINGTON *   CLOUDY    46  46 100 E24G31    29.85F FOG
$$

ABBREVIATIONS USED IN REMARKS
   TC - TEMPERATURES IN CELSIUS
  WCI - WIND CHILL INDEX
   HX - HEAT INDEX
  VSB - VISIBILITY
$$




USA.gov is the U.S. government's official web portal to all federal, state and local government web resources and services.